모두
Riversleigh Airport YRLH 기상
There is no TAF data available at YRLH or any nearby airports.
There is no METAR data available at YRLH. Showing METAR data for YCNY (19 mi 북).
최근 YCNY METAR 이력(YRLH에 대한 데이터 없음)
| Date | Time (AEST) | Flight Rules | Wind Dir. | Speed | Type | Height AGL (ft) | Visibility | Temp (°C) | Temp (°F) | Dew Point (°C) | Dew Point (°F) | Rel. Humid. | Pressure | Density Altitude | Remarks |
|---|---|---|---|---|---|---|---|---|---|---|---|---|---|---|---|
| 06-5월 | 11:00 | n/a | 180° | 9 kt | Missing | 25° | 77° | 10° | 50° | 39% | 1016 mb | 1,534 ft | |||
| 06-5월 | 10:00 | n/a | 190° | 8 kt | Missing | 24° | 75° | 9° | 48° | 38% | 1017 mb | 1,384 ft | |||
| 06-5월 | 09:00 | n/a | 180° | 9 kt | Missing | 21° | 69° | 9° | 48° | 46% | 1017 mb | 1,024 ft | |||
| 06-5월 | 08:00 | n/a | 200° | 9 kt | Missing | 19° | 66° | 8° | 46° | 49% | 1016 mb | 814 ft | |||
| 06-5월 | 07:00 | n/a | 190° | 5 kt | Missing | 18° | 64° | 8° | 46° | 52% | 1016 mb | 694 ft | |||
| 06-5월 | 06:00 | n/a | 180° | 6 kt | Missing | 19° | 66° | 8° | 46° | 49% | 1015 mb | 843 ft | |||
| 06-5월 | 05:00 | n/a | 180° | 7 kt | Missing | 19° | 66° | 8° | 46° | 49% | 1015 mb | 843 ft | |||
| 06-5월 | 04:00 | n/a | 180° | 5 kt | Missing | 20° | 68° | 9° | 48° | 49% | 1015 mb | 963 ft | |||
| 06-5월 | 03:00 | n/a | 180° | 8 kt | Missing | 20° | 68° | 9° | 48° | 49% | 1015 mb | 963 ft | |||
| 06-5월 | 02:00 | n/a | 190° | 9 kt | Missing | 21° | 69° | 10° | 50° | 49% | 1015 mb | 1,083 ft | |||
| 06-5월 | 01:00 | n/a | 190° | 8 kt | Missing | 21° | 69° | 11° | 51° | 53% | 1015 mb | 1,083 ft | |||
| 06-5월 | 00:00 | n/a | 190° | 8 kt | Missing | 22° | 71° | 12° | 53° | 53% | 1016 mb | 1,174 ft | |||
| 05-5월 | 23:00 | n/a | 190° | 7 kt | Missing | 23° | 73° | 13° | 55° | 53% | 1016 mb | 1,294 ft | |||
| 05-5월 | 22:00 | n/a | 190° | 4 kt | Missing | 22° | 71° | 13° | 55° | 57% | 1016 mb | 1,174 ft | |||
| 05-5월 | 21:00 | n/a | 160° | 5 kt | Missing | 24° | 75° | 13° | 55° | 50% | 1016 mb | 1,414 ft | |||
| 05-5월 | 20:00 | n/a | 170° | 5 kt | Missing | 24° | 75° | 14° | 57° | 54% | 1015 mb | 1,443 ft | |||
| 05-5월 | 19:00 | n/a | 190° | 6 kt | Missing | 25° | 77° | 14° | 57° | 50% | 1015 mb | 1,563 ft | |||
| 05-5월 | 18:00 | n/a | 170° | 5 kt | Missing | 27° | 80° | 14° | 57° | 45% | 1014 mb | 1,833 ft | |||
| 05-5월 | 17:00 | n/a | 170° | 7 kt | Missing | 29° | 84° | 14° | 57° | 40% | 1014 mb | 2,073 ft | |||
| 05-5월 | 16:00 | n/a | 180° | 7 kt | Missing | 29° | 84° | 14° | 57° | 40% | 1013 mb | 2,102 ft | |||
| 05-5월 | 15:00 | n/a | 150° | 9 kt | Missing | 29° | 84° | 14° | 57° | 40% | 1014 mb | 2,073 ft | |||
| 05-5월 | 14:00 | n/a | 160° | 9 kt | Missing | 29° | 84° | 14° | 57° | 40% | 1014 mb | 2,073 ft | |||
| 05-5월 | 13:00 | n/a | 150° | 10 kt | Missing | 28° | 82° | 16° | 60° | 48% | 1015 mb | 1,923 ft | |||
| 05-5월 | 12:00 | n/a | 190° | 9 kt | Missing | 27° | 80° | 17° | 62° | 54% | 1016 mb | 1,774 ft |
로그인
| 귀하의 브라우저는 지원되지 않습니다.. 브라우저를 업그레이드하세요 |
